Volver al catálogo

COSMOS 1275 DEB

ActivoPO
NORAD 13811·DEBRIS·🇷🇺 Russia

Lanzado Jun 4, 1981 desde Plesetsk Cosmodrome

Loading…

Próximos Pases (próximas 24 horas)

TLE

ActualizadoSource: Space-Track

Época: Sep 14, 2026, 16:20 UTC

1 13811U 81053HF  26257.68065267  .00001502  00000-0  74711-3 0  9994
2 13811  82.9367 156.4740 0008137 209.2586 178.3545 14.16453568227174

Sigue COSMOS 1275 DEB en tiempo real con AllMySat

Download on the App Store